Location: Bun Machan
(52.1403°N, 7.3744°W)
Time: 08:30:35
(UTC+00:00)

Cosmos 1238 Rocket - Pass Details

Date: 14 July 2020
Orbit: 373 x 1030 km, 82.9° (Epoch: 04 August)

Event Time Altitude Azimuth Distance (km) Brightness Sun altitude
Exits shadow 00:49:52 23° 158° (SSE) 1,574 4.6 -16.2°
Maximum altitude 00:52:46 49° 95° (E) 915 3.9 -16.1°
Drops below altitude 10° 00:57:04 10° 21° (NNE) 1,999 6.9 -16.1°
Sets 00:59:08 0° 15° (NNE) 2,808 8.2 -16.0°
